Terminal Aerodrome Forecast
Issued by NWS

Home | Current Version | Previous Version | Text Only | Print | Product List | Glossary On
Versions: 1 2 3 4 5 6 7 8 9 10 11 12 13 14
000
FTUS46 KHNX 230500
TAFMCE
TAF
KMCE 230520Z 2306/2406 33012KT P6SM SCT120
     FM231100 32008KT P6SM SCT200
     FM231900 31012G18KT P6SM FEW200=

USA.gov is the U.S. government's official web portal to all federal, state and local government web resources and services.